Regional Weather Roundup
Issued by NWS Memphis, TN

Home | Current Version | Previous Version | Text Only | Print | Product List | Glossary On
Versions: 1 2 3 4 5 6 7 8 9 10 11 12 13 14 15 16 17 18 19 20 21 22 23 24 25 26 27 28 29 30 31 32 33 34 35 36 37 38 39 40 41 42 43 44 45 46 47 48 49 50
000
ASUS44 KMEG 211510
RWRMEG
MEMPHIS CWA HOURLY WEATHER ROUNDUP
NATIONAL WEATHER SERVICE MEMPHIS TN
900 AM CST TUE FEB 21 2017

...WEST TENNESSEE...

CITY           SKY/WX    TMP DP  RH WIND       PRES   REMARKS
MEMPHIS INTL   CLOUDY    61  59  93 S12       29.88R
NWS MEMPHIS      N/A     59 N/A N/A MISG        N/A
JACKSON        MOSUNNY   61  56  83 SE9G18    29.85F
BOLIVAR        MOSUNNY   59  57  94 SE10      29.85F
UNION CITY     CLOUDY   N/A N/A N/A CALM      29.89R
PARIS          CLOUDY    55  52  88 E8        29.91F
HUNTINGDON     MOSUNNY   59  55  88 E8        29.88F


...EASTERN ARKANSAS...

CITY           SKY/WX    TMP DP  RH WIND       PRES   REMARKS
JONESBORO      CLOUDY    58  55  90 NE7       29.85S
WEST MEMPHIS   CLOUDY    60  60 100 S10       29.87R
BATESVILLE     CLOUDY    57  55  94 E7        29.86S
NEWPORT        LGT RAIN  58  57  97 MISG        N/A  FOG
WALNUT RIDGE   CLOUDY    57  54  88 NE7       29.86F
BLYTHEVILLE    LGT RAIN  59  57  93 S6        29.88R
NW BLYTHEVILLE CLOUDY    59  55  88 SE6       29.87R
SEARCY         CLOUDY    60  60 100 SW5       29.87R
STUTTGART      CLOUDY    61  54  77 SW8       29.87F
PINE BLUFF     CLOUDY    59  58  96 SW6       29.87R
MONTICELLO     CLOUDY    59  57  93 SW7       29.89S


...NORTH MISSISSIPPI...

CITY           SKY/WX    TMP DP  RH WIND       PRES   REMARKS
TUPELO         CLOUDY    59  56  89 SE7       29.92R
OXFORD         CLOUDY    57  57 100 S10G16    29.93R
BATESVILLE     CLOUDY    60  58  94 S7        29.93R
OLIVE BRANCH   CLOUDY   N/A N/A N/A S12G18    29.88R
TUNICA         CLOUDY    59  57  94 SW13      29.90R
GREENWOOD      RAIN      60  57  89 W3        29.91F FOG
COLUMBUS       LGT RAIN  59  59 100 SE15      29.94R
GOLDEN TRIANGL CLOUDY    59  54  82 SE13      29.91R


...SOUTHEAST MISSOURI...

CITY           SKY/WX    TMP DP  RH WIND       PRES   REMARKS
KENNETT        CLOUDY    59  57  94 E10       29.86R FOG
WEST PLAINS    CLOUDY    58  57  97 E8        29.90R FOG
POPLAR BLUFF   LGT RAIN  59  56  89 E12       29.88R
CAPE GIRARDEAU CLOUDY    60  52  74 NE6       29.91S


...NORTHWEST ALABAMA...

CITY           SKY/WX    TMP DP  RH WIND       PRES   REMARKS
MUSCLE SHOALS  CLOUDY    64  53  67 SE13      29.95F


...MIDDLE TENNESSEE...

CITY           SKY/WX    TMP DP  RH WIND       PRES   REMARKS
NASHVILLE      CLOUDY    63  48  58 SE8       29.99F
CLARKSVILLE    MOSUNNY   63  50  62 VRB7      29.98R
COLUMBIA       CLOUDY    61  61 100 SE8       29.97S


...WESTERN KENTUCKY...

CITY           SKY/WX    TMP DP  RH WIND       PRES   REMARKS
PADUCAH        LGT RAIN  60  52  74 E5        29.92F
FORT CAMPBELL  MOSUNNY   63  49  61 SE8       29.97R


...CENTRAL ARKANSAS...

CITY           SKY/WX    TMP DP  RH WIND       PRES   REMARKS
LITTLE ROCK    RAIN      59  59 100 SW6       29.86S FOG


SKY/WX REPORTED AS FAIR MEANS FEW OR NO CLOUDS BELOW
12 THOUSAND FEET.




USA.gov is the U.S. government's official web portal to all federal, state and local government web resources and services.